Content
SEND FEEDBACK

Daily
Averages
Monthly
Summary
Mexico

PUEBLA - JARDINES DE SAN MANUEL, PUEBLA


Home > North America > Mexico > Puebla
Elevation: 6962 feet     Latitude: 19 00N     Longitude: 098 11W

WEATHER
 
SELECT A DAY
Number of Records: 125,646;   Date Range: 1/1/95 - 12/26/14
 
SHARE

PRINT THIS DATA

[ ← Previous Day ]
WEATHER ALMANAC - MARCH 15, 2013
[ Next Day → ]
[ °C ]   °F
Weather ElementAverageHighLow
Temperature52.1 °F60.8 °F (12:41 pm)44.6 °F (5:41 am)
Dewpoint43.7 °F46.4 °F (5:24 pm)37.4 °F (5:41 am)
Humidity72.4 %93 % (8:41 pm)47 % (5:50 pm)
Barometer30.24 in30.40 in (8:41 am)29.69 in (8:56 pm)
Wind Speed5.5 mph11.5 mph (7:12 pm)
Weather ElementAverage
Visibility5.6 mi
Wind DirectionSSE (149.3 °)

Weather ElementTotal
Precipitation---
Heating Degree Days12.3 (Base 65)
Growing Degree Days2.7 (Base 50)
Averaged from 28 records on March 15, 2013
WEATHER CONDITIONS BREAKOUT
WIND DIRECTION BREAKOUT
WEATHER BY HOUR - MARCH 15, 2013
[ °C ]   °F
Local TimeTemperatureDewpointHumidityBarometerVisibilityWind DirectionWind SpeedGust SpeedPrecipitationEventsConditions
5:41 AM44.6 °F37.4 °F76 %30.36 in7.0 miNNE (20°)4.6 mphOvercast
6:42 AM44.6 °F39.2 °F81 %30.38 in6.0 miCalmOvercast
7:15 AM44.6 °F39.2 °F81 %30.39 in6.0 miNorth (10°)2.3 mphRainLight Rain
7:41 AM46.4 °F41.0 °F81 %30.39 in6.0 miCalmRainLight Rain
8:41 AM48.2 °F41.0 °F76 %30.40 in6.0 miNNE (20°)5.8 mphRainLight Rain
8:50 AM50.0 °F44.0 °F73 %30.11 in3.0 miWSW (240°)2.2 mphRainLight Drizzle
9:41 AM50.0 °F44.6 °F82 %30.40 in5.0 miNNW (330°)5.8 mphRainLight Rain
10:41 AM53.6 °F44.6 °F72 %30.38 in6.0 miNW (320°)4.6 mphOvercast
11:43 AM59.0 °F44.6 °F59 %30.34 in6.0 miNorth (10°)5.8 mphOvercast
11:50 AM58.0 °F44.0 °F48 %30.06 in3.0 miWNW (300°)2.2 mphPartly Cloudy
12:41 PM60.8 °F41.0 °F48 %30.32 in6.0 miSE (130°)3.5 mphOvercast
1:40 PM57.2 °F42.8 °F59 %30.29 in5.0 miSouth (170°)8.1 mphOvercast
2:40 PM57.2 °F42.8 °F59 %30.26 in7.0 miSouth (180°)9.2 mphOvercast
2:45 PM58.0 °F46.0 °F55 %29.93 in3.0 miESE (120°)2.2 mphHaze
3:42 PM55.4 °F42.8 °F63 %30.26 in6.0 miSSW (210°)8.1 mphOvercast
4:41 PM57.2 °F42.8 °F59 %30.25 in6.0 miSSW (200°)10.4 mphOvercast
5:24 PM55.4 °F46.4 °F72 %30.25 in5.0 miSSW (200°)6.9 mphRainLight Rain
5:40 PM53.6 °F46.4 °F77 %30.26 in6.0 miSouth (180°)8.1 mphRainLight Rain
5:50 PM57.0 °F42.0 °F47 %29.89 in12.0 miESE (120°)2.2 mphOvercast
6:40 PM53.6 °F44.6 °F72 %30.27 in6.0 miSSW (200°)5.8 mphOvercast
7:12 PM51.8 °F46.4 °F82 %30.27 in6.0 miSSW (200°)11.5 mphRainLight Rain
7:42 PM50.0 °F46.4 °F87 %30.30 in6.0 miSouth (190°)10.4 mphRainLight Rain
8:41 PM48.2 °F46.4 °F93 %30.32 in5.0 miSSE (160°)8.1 mphRainLight Rain
8:56 PM53.0 °F44.0 °F62 %29.69 in3.0 miCalmOvercast
9:41 PM48.2 °F46.4 °F93 %30.32 in6.0 miSSE (150°)10.4 mphDrizzle
10:44 PM48.2 °F46.4 °F93 %30.32 in6.0 miSouth (170°)6.9 mphDrizzle
11:46 PM46.4 °F44.6 °F93 %30.29 in6.0 miSE (140°)6.9 mphDrizzle
11:58 PM49.0 °F46.0 °F83 %30.00 in3.0 miENE (60°)2.2 mphOvercast
Hourly data recorded from MMPB, located miles away from Puebla - Jardines de San Manuel, Puebla







STORIES FROM OUR PARTNERS